Wind_Speed
6 7 8 8 9 11 15 17 17 16 16 14 14 12 11 10 8 4 3 2 2 4 5 5 6 6 6 6 5 4 3 3 3 4 5 5 5 6 6 5 4 4 3 3 2 2 2 2 2
6 6 7 8 9 11 15 17 17 17 16 15 14 13 12 9 8 6 4 2 2 3 5 6 6 7 7 7 6 6 5 4 4 4 5 5 6 6 6 5 5 4 3 3 2 2 2 2 2
5 6 6 6 8 11 12 15 18 18 17 16 16 14 12 10 8 6 4 2 2 3 4 6 7 7 8 8 7 7 6 5 5 4 5 5 6 6 6 6 5 4 3 3 3 2 2 2 2
4 5 4 5 7 10 12 14 17 18 17 17 17 14 12 11 9 8 5 4 3 3 5 6 8 8 8 9 8 8 7 6 5 5 5 5 6 6 6 6 5 4 4 3 3 3 3 2 2
3 4 3 4 7 9 11 13 17 18 18 17 18 16 14 13 11 9 7 5 4 4 5 7 9 9 10 10 9 9 8 7 6 5 5 5 6 6 6 6 5 4 4 4 4 3 3 3 2
2 1 0 4 7 8 9 12 15 17 18 18 17 17 15 13 12 11 8 6 4 5 6 7 9 10 11 11 11 10 9 8 7 6 5 5 6 6 6 6 5 5 4 4 4 4 3 3 2
1 2 1 3 6 7 7 11 14 17 18 17 17 18 16 15 14 13 10 8 6 4 5 7 9 10 11 12 12 11 10 9 8 7 6 6 6 6 6 5 5 5 5 4 4 3 3 3 2
2 2 1 2 4 6 8 11 13 16 16 16 17 19 19 17 15 13 11 9 6 5 6 7 10 10 12 12 13 13 11 10 9 8 7 7 6 6 6 5 5 5 5 5 4 4 3 3 2
2 2 2 0 3 6 9 12 15 15 16 18 19 20 20 18 16 14 12 9 7 6 8 8 9 11 12 13 14 14 12 11 10 9 8 8 7 7 6 6 6 5 5 5 4 4 3 2 2
5 5 4 2 3 5 8 12 14 14 16 17 19 21 21 20 17 15 12 9 9 7 7 8 9 11 13 14 15 15 14 13 11 10 9 8 8 7 7 6 6 5 5 5 5 4 3 2 2
7 8 7 5 3 6 9 11 12 14 16 17 18 21 21 21 19 16 13 10 9 9 8 8 9 12 14 16 16 16 15 14 13 11 10 9 8 8 7 6 5 5 5 5 5 4 4 2 2
10 10 9 7 5 7 9 10 11 13 16 17 19 21 20 20 18 16 14 11 9 10 10 9 11 12 14 15 16 17 16 15 14 13 11 10 8 8 7 6 5 5 5 5 5 4 4 2 2
11 11 9 8 8 8 8 8 11 13 16 18 20 20 22 21 19 17 15 12 11 10 10 10 11 12 14 15 16 17 17 17 16 14 13 11 9 8 7 6 5 5 4 4 4 4 4 3 2
11 10 8 7 7 7 8 8 10 14 17 19 20 21 22 20 20 18 15 12 11 10 10 11 11 12 14 15 16 17 17 17 16 15 14 12 10 8 7 6 5 4 4 3 3 4 3 3 3
9 8 6 5 5 6 7 8 10 14 17 20 21 21 21 20 20 18 16 14 11 10 11 12 11 12 13 15 16 16 18 18 18 16 14 13 11 10 9 7 6 4 4 3 3 3 3 3 2
8 6 4 3 4 6 8 9 11 15 18 20 21 21 21 20 20 20 17 14 11 10 11 11 11 12 13 15 16 16 17 19 19 17 15 14 12 11 9 7 6 5 4 3 3 3 3 3 2
8 8 7 6 5 7 10 12 13 17 19 21 20 21 21 20 20 19 15 14 12 11 10 10 9 11 12 14 15 16 16 18 19 17 15 14 13 12 10 8 7 6 5 4 3 3 3 3 3
11 11 10 8 6 9 12 13 14 18 20 21 20 19 20 20 19 17 14 14 12 11 10 9 9 10 12 12 13 16 16 18 18 18 16 15 14 12 11 9 8 7 6 5 4 3 3 3 3
15 13 11 10 9 12 13 16 17 18 20 21 20 19 18 19 17 15 14 13 12 10 9 7 9 8 9 11 12 15 17 18 18 17 17 15 15 14 12 10 9 8 7 6 5 5 4 3 3
15 13 11 12 12 14 16 18 18 19 20 20 18 17 16 16 15 15 14 13 12 11 10 7 6 8 9 12 12 14 15 17 17 18 18 17 15 14 13 12 11 9 8 7 6 6 5 4 4
14 12 12 13 14 16 19 20 19 18 19 18 15 14 14 14 13 14 14 13 11 10 8 7 5 6 9 12 13 13 14 15 16 17 18 17 16 15 15 14 13 11 10 9 8 7 6 5 5
14 12 15 16 17 18 20 21 19 19 17 16 14 12 12 12 12 12 13 13 11 9 7 6 5 6 9 11 13 14 14 15 17 17 18 17 17 17 16 15 14 13 12 11 10 9 8 7 7
13 14 16 18 19 19 19 20 19 18 17 15 14 10 11 11 11 12 12 12 10 8 5 5 6 7 8 11 12 14 15 16 17 18 18 18 17 17 17 17 16 15 13 12 11 11 10 9 8
14 15 17 19 19 19 17 18 17 17 16 16 13 11 10 10 11 11 12 12 10 7 5 4 5 7 8 10 12 13 15 16 18 18 19 19 18 18 18 18 17 16 15 14 13 13 12 11 10
14 16 17 17 17 15 16 18 17 17 18 17 13 9 7 9 11 10 11 11 9 7 5 4 4 6 7 10 12 13 14 16 18 19 19 20 20 20 19 19 18 17 16 15 15 15 14 13 12
11 14 16 17 15 14 16 17 16 17 17 15 12 7 5 7 9 10 10 10 9 8 6 5 5 6 8 9 11 12 13 16 17 18 19 19 21 21 20 20 19 18 17 17 17 17 16 15 15
12 14 15 17 17 17 17 16 14 14 13 11 9 7 5 6 7 9 9 10 9 7 6 5 4 4 6 8 11 13 13 15 16 17 18 19 21 21 21 20 20 20 19 19 19 19 18 17 17
12 12 15 17 18 19 18 17 16 14 12 10 9 7 6 5 5 6 8 9 9 8 7 6 4 4 5 7 9 11 13 14 16 18 18 19 21 21 20 20 21 21 20 20 20 20 19 19 19
13 13 15 17 18 20 20 19 17 17 14 14 11 8 7 6 6 7 7 8 9 8 7 6 4 4 5 6 8 9 11 12 15 17 18 18 19 20 20 20 20 21 22 22 21 21 21 21 21
17 16 17 18 19 20 21 20 20 19 17 15 12 9 7 7 7 7 7 7 7 8 7 6 4 4 5 6 7 9 11 12 13 15 17 17 17 18 19 20 20 20 21 22 23 23 23 23 23
Wind_Direction
63 72 71 68 59 51 42 31 21 11 9 10 12 13 9 4 9 8 341 292 250 220 209 203 207 207 205 207 211 225 239 259 283 303 313 317 322 330 333 336 342 344 346 349 355 359 359 4 19
65 74 82 81 65 49 37 26 13 6 6 6 10 14 12 11 11 1 336 318 257 228 223 214 213 215 216 216 218 229 241 252 268 290 304 312 319 325 328 330 335 338 337 337 348 354 352 355 8
63 77 86 92 70 48 35 21 7 4 3 3 4 10 16 19 10 355 339 318 274 240 224 217 216 219 219 221 223 228 235 246 258 274 293 306 314 320 323 324 328 330 330 330 337 344 343 339 347
63 88 89 91 69 44 30 16 1 0 358 0 2 6 10 14 7 349 333 318 295 255 226 221 217 218 218 220 220 226 235 239 250 263 283 299 308 313 317 319 322 327 331 329 329 332 335 336 338
63 85 94 78 69 49 22 7 353 352 355 359 2 2 359 3 4 350 330 323 304 266 237 227 221 219 219 220 220 226 234 237 245 255 271 288 299 305 309 313 316 322 326 324 321 324 327 332 338
50 62 56 64 59 50 20 358 347 347 350 356 360 359 359 1 1 350 334 328 310 268 247 234 225 222 221 221 220 221 225 231 238 247 260 276 289 298 302 306 310 315 317 318 317 320 324 328 332
289 287 317 53 55 39 10 349 344 342 346 353 357 358 357 356 357 353 341 334 319 276 248 237 229 224 222 221 221 220 223 229 235 241 253 267 282 292 296 299 305 311 316 318 317 315 317 320 323
280 269 251 80 54 21 352 337 335 337 343 349 351 352 351 350 352 348 336 325 310 272 259 244 233 226 225 226 225 223 224 229 235 239 249 261 273 282 286 291 301 307 311 315 317 317 320 320 320
268 232 217 129 36 5 340 329 327 333 341 344 346 347 348 346 346 343 336 325 308 281 267 250 234 231 229 227 227 226 226 229 233 237 248 257 267 273 277 285 293 298 303 305 311 317 318 322 328
247 229 242 268 340 341 323 321 323 330 337 339 342 344 343 342 341 338 331 322 310 293 270 256 237 231 230 228 227 227 227 228 231 236 245 253 262 265 270 278 285 289 294 298 305 310 317 321 326
253 242 251 254 295 306 308 315 320 324 329 335 340 340 339 340 339 334 330 321 307 294 280 266 245 235 232 229 226 225 224 226 229 234 238 247 256 259 264 272 277 279 283 291 298 301 302 306 307
259 249 248 248 266 279 290 309 320 324 327 334 340 337 337 339 338 337 328 317 303 297 279 272 249 239 233 230 226 224 223 223 225 229 233 242 249 253 256 263 268 270 277 286 290 292 292 288 289
275 260 254 250 259 268 281 302 318 324 331 332 335 337 338 337 337 337 332 324 310 291 279 264 253 241 232 228 224 222 222 222 224 226 229 235 243 244 244 250 258 264 276 283 280 282 286 286 280
284 280 273 262 261 263 279 300 313 322 328 331 336 337 336 336 336 338 335 325 310 294 280 264 252 241 232 229 222 219 219 220 221 223 225 230 236 234 237 244 250 257 273 283 285 278 274 272 267
284 286 281 272 278 272 287 299 310 319 323 328 333 337 337 338 338 337 335 327 315 302 288 271 261 241 231 226 220 217 217 219 219 219 222 226 230 230 231 236 237 244 258 270 273 266 255 250 252
279 271 259 270 289 297 296 301 306 315 321 325 328 332 336 338 337 336 333 327 321 312 301 278 267 243 231 224 220 218 216 217 216 216 217 219 222 224 223 225 224 228 238 247 253 249 240 237 237
264 258 263 277 294 300 299 304 311 315 317 320 325 330 336 338 336 334 331 328 326 318 309 282 263 240 228 218 221 221 215 213 214 214 214 215 218 221 222 219 218 226 233 233 237 230 220 227 233
256 257 265 279 291 296 298 303 306 307 310 318 325 329 334 336 336 336 334 331 325 321 312 290 261 239 228 220 221 221 218 214 212 210 212 214 216 218 219 218 219 225 228 227 227 212 207 218 226
255 259 269 285 289 287 289 290 293 298 306 315 324 326 331 334 335 337 335 329 324 319 313 306 266 240 227 226 222 219 217 214 209 210 214 216 216 216 216 218 220 222 224 221 214 205 203 208 207
256 266 276 274 274 274 277 282 287 293 302 310 317 322 327 333 336 338 337 334 329 317 305 299 275 244 229 221 218 213 214 212 210 213 216 217 217 216 216 217 219 218 218 215 211 209 208 211 208
254 268 276 271 267 267 271 278 284 290 296 302 311 317 324 333 335 335 339 339 332 324 303 301 280 249 229 220 219 216 216 216 216 214 214 215 214 215 215 216 217 216 214 215 215 214 213 213 210
259 266 269 268 264 264 267 276 281 286 287 292 303 315 324 332 335 336 338 340 335 326 307 295 268 248 230 224 221 219 216 214 211 211 213 214 215 215 215 216 217 217 217 217 218 218 221 221 216
260 265 266 266 265 266 268 274 279 282 285 289 297 309 322 330 336 340 341 341 337 327 306 287 267 247 232 225 220 216 214 212 212 213 214 215 217 218 217 218 219 220 221 221 223 223 227 227 222
256 264 267 266 267 266 267 273 280 278 281 285 290 301 317 330 335 341 344 341 337 330 317 297 271 249 232 221 218 217 213 212 212 214 216 216 217 219 220 220 221 223 224 225 227 229 231 232 231
254 261 267 267 266 265 269 273 285 283 283 285 283 289 314 327 332 341 347 345 344 340 324 301 275 251 233 221 220 219 215 213 214 217 220 219 219 220 221 221 224 226 226 230 232 233 235 238 239
256 262 267 270 269 263 268 279 293 290 293 290 280 280 309 324 337 343 346 346 344 341 328 304 289 261 238 226 221 220 217 215 217 220 221 219 220 223 222 223 225 227 230 233 235 237 240 241 243
253 263 269 269 270 267 271 281 295 297 297 289 272 263 286 316 330 336 342 345 341 335 330 316 302 278 239 228 224 222 221 219 220 218 217 217 219 221 223 227 229 232 234 236 238 239 241 243 246
247 256 263 265 267 268 271 277 290 299 304 296 281 278 292 298 306 324 337 341 343 339 332 321 299 267 238 228 224 221 223 221 219 217 217 218 219 222 225 229 231 234 237 239 240 241 244 246 249
242 251 258 265 266 269 273 275 280 287 298 301 290 281 284 280 301 314 330 335 340 341 334 322 305 268 247 236 224 220 219 220 220 217 215 216 220 224 227 233 235 239 241 242 243 244 247 249 251
238 247 256 262 265 265 269 273 275 282 291 297 302 304 287 286 295 300 312 326 336 342 341 334 306 276 251 233 221 218 220 219 219 218 219 223 224 228 234 236 239 242 243 246 247 247 249 252 254
Height
5899 5898 5898 5898 5898 5896 5894 5893 5892 5892 5891 5889 5889 5887 5886 5885 5886 5887 5884 5883 5883 5884 5884 5885 5886 5888 5889 5890 5891 5892 5892 5893 5894 5894 5894 5894 5894 5894 5893 5892 5891 5891 5890 5889 5888 5888 5888 5887 5887
5899 5899 5899 5899 5898 5895 5894 5894 5893 5892 5891 5889 5889 5888 5887 5885 5884 5883 5882 5882 5882 5883 5883 5884 5886 5887 5888 5889 5890 5891 5892 5893 5893 5894 5894 5894 5894 5894 5893 5893 5892 5891 5890 5889 5888 5888 5887 5887 5887
5900 5899 5900 5898 5897 5896 5895 5894 5893 5892 5891 5889 5888 5887 5886 5886 5884 5882 5882 5881 5881 5881 5882 5883 5885 5886 5887 5889 5890 5891 5892 5892 5893 5894 5894 5894 5894 5894 5893 5893 5892 5891 5890 5889 5889 5888 5887 5887 5887
5900 5900 5900 5899 5896 5895 5895 5894 5894 5893 5891 5890 5888 5887 5886 5885 5883 5881 5880 5880 5879 5880 5881 5882 5883 5885 5886 5888 5889 5890 5891 5892 5893 5894 5894 5894 5894 5894 5893 5893 5892 5891 5890 5889 5889 5888 5888 5887 5887
5901 5901 5900 5898 5896 5895 5894 5894 5894 5893 5892 5890 5889 5887 5885 5884 5881 5880 5879 5879 5878 5879 5880 5881 5882 5884 5885 5887 5888 5889 5890 5891 5892 5893 5893 5894 5894 5894 5893 5893 5892 5891 5890 5889 5889 5888 5888 5888 5887
5901 5901 5901 5899 5897 5896 5895 5895 5895 5893 5892 5890 5889 5886 5884 5883 5881 5878 5877 5877 5877 5878 5878 5879 5881 5882 5884 5885 5886 5888 5889 5890 5891 5892 5893 5893 5893 5893 5893 5892 5891 5891 5890 5889 5889 5888 5888 5887 5887
5903 5902 5901 5899 5898 5896 5896 5895 5894 5893 5892 5890 5888 5886 5883 5882 5880 5878 5876 5875 5876 5876 5877 5878 5879 5880 5882 5884 5885 5886 5887 5889 5890 5891 5892 5892 5892 5893 5892 5892 5891 5890 5890 5889 5888 5888 5888 5887 5887
5902 5902 5900 5899 5898 5897 5896 5895 5894 5893 5892 5890 5887 5884 5882 5881 5879 5877 5875 5874 5874 5874 5874 5875 5876 5878 5880 5882 5884 5885 5886 5887 5889 5890 5891 5891 5892 5892 5892 5891 5891 5890 5889 5889 5888 5888 5887 5887 5887
5901 5902 5899 5898 5897 5897 5896 5895 5894 5892 5891 5889 5886 5883 5881 5879 5877 5875 5874 5872 5872 5872 5872 5873 5874 5875 5878 5880 5881 5883 5884 5886 5887 5888 5889 5890 5891 5891 5891 5890 5890 5889 5889 5888 5888 5887 5887 5887 5886
5900 5900 5899 5898 5897 5896 5896 5895 5893 5891 5890 5888 5886 5883 5879 5877 5875 5873 5872 5870 5870 5870 5869 5870 5871 5873 5875 5877 5879 5881 5883 5884 5886 5887 5888 5889 5889 5890 5890 5889 5889 5889 5888 5888 5887 5887 5887 5886 5886
5899 5898 5897 5896 5895 5895 5895 5894 5893 5891 5889 5888 5885 5882 5878 5875 5873 5872 5869 5867 5866 5866 5866 5867 5868 5870 5872 5873 5875 5878 5880 5882 5884 5885 5886 5887 5888 5888 5889 5888 5888 5888 5887 5887 5887 5887 5886 5886 5886
5897 5896 5895 5894 5893 5893 5893 5893 5892 5889 5888 5886 5884 5881 5877 5874 5871 5870 5867 5866 5864 5862 5863 5864 5865 5867 5868 5870 5872 5875 5877 5880 5881 5883 5884 5885 5886 5887 5887 5887 5887 5887 5887 5886 5886 5886 5885 5885 5885
5895 5894 5892 5891 5891 5891 5891 5891 5889 5887 5886 5885 5882 5879 5875 5872 5869 5867 5865 5863 5861 5861 5860 5861 5862 5863 5865 5867 5869 5871 5874 5877 5879 5881 5882 5884 5885 5885 5886 5886 5886 5886 5886 5886 5885 5885 5885 5884 5884
5894 5892 5891 5890 5889 5889 5889 5888 5887 5885 5884 5883 5880 5877 5874 5870 5866 5864 5862 5860 5858 5857 5857 5857 5857 5859 5861 5864 5866 5868 5871 5874 5876 5878 5880 5882 5883 5884 5885 5885 5885 5885 5885 5885 5885 5884 5884 5884 5884
5892 5891 5890 5889 5888 5888 5887 5886 5885 5883 5882 5881 5878 5876 5872 5868 5864 5861 5858 5856 5855 5854 5853 5853 5853 5855 5857 5859 5862 5864 5867 5871 5873 5876 5878 5879 5881 5882 5883 5884 5884 5884 5884 5884 5884 5884 5883 5883 5883
5889 5889 5888 5888 5887 5886 5886 5884 5883 5881 5880 5879 5876 5874 5870 5866 5862 5859 5856 5853 5851 5850 5849 5849 5850 5852 5854 5856 5858 5861 5864 5867 5870 5873 5875 5877 5879 5880 5881 5882 5883 5883 5884 5884 5883 5883 5883 5883 5882
5887 5886 5885 5885 5884 5883 5883 5881 5881 5879 5878 5876 5874 5871 5868 5864 5861 5858 5854 5851 5848 5847 5847 5846 5847 5849 5851 5853 5855 5857 5860 5864 5867 5870 5872 5874 5877 5878 5880 5881 5881 5882 5882 5883 5883 5883 5882 5882 5882
5884 5883 5882 5881 5881 5881 5880 5878 5878 5876 5876 5874 5872 5869 5866 5862 5859 5856 5853 5850 5847 5846 5845 5844 5845 5846 5847 5849 5852 5855 5858 5861 5864 5867 5869 5872 5874 5876 5878 5879 5880 5881 5881 5882 5882 5882 5882 5882 5881
5880 5880 5879 5878 5878 5878 5877 5876 5875 5874 5873 5871 5869 5867 5863 5861 5857 5855 5852 5849 5846 5844 5842 5842 5842 5842 5845 5847 5850 5853 5855 5858 5861 5864 5866 5869 5871 5874 5875 5877 5878 5879 5880 5880 5881 5881 5881 5881 5881
5877 5876 5876 5876 5876 5875 5874 5873 5873 5872 5871 5869 5867 5864 5862 5859 5856 5853 5850 5847 5844 5842 5840 5840 5840 5841 5843 5846 5848 5850 5852 5854 5857 5860 5864 5866 5869 5871 5873 5875 5876 5877 5878 5879 5879 5880 5881 5881 5881
5873 5873 5873 5874 5873 5872 5871 5870 5870 5870 5868 5867 5865 5863 5860 5857 5854 5851 5849 5846 5843 5841 5840 5839 5840 5840 5842 5843 5845 5847 5849 5852 5855 5858 5861 5863 5866 5868 5870 5872 5874 5875 5876 5877 5878 5879 5880 5880 5880
5868 5869 5870 5869 5869 5869 5869 5867 5867 5866 5865 5864 5863 5861 5858 5855 5853 5850 5847 5844 5842 5840 5839 5839 5839 5839 5840 5841 5843 5845 5847 5849 5852 5855 5858 5860 5862 5865 5867 5869 5871 5873 5874 5875 5876 5877 5878 5878 5879
5864 5865 5865 5865 5865 5865 5865 5865 5865 5863 5862 5862 5860 5859 5856 5853 5851 5848 5846 5843 5841 5839 5838 5838 5837 5838 5838 5839 5841 5843 5845 5847 5849 5852 5854 5857 5860 5862 5864 5867 5869 5870 5872 5873 5875 5876 5876 5877 5877
5860 5861 5861 5861 5861 5862 5862 5861 5861 5860 5859 5859 5857 5856 5853 5851 5848 5846 5844 5841 5839 5838 5836 5836 5836 5836 5836 5837 5839 5840 5842 5844 5846 5849 5851 5854 5857 5859 5862 5864 5866 5868 5869 5871 5872 5873 5874 5875 5875
5856 5857 5858 5857 5858 5858 5858 5857 5858 5856 5856 5854 5854 5853 5850 5848 5845 5843 5842 5840 5838 5836 5835 5834 5834 5834 5834 5835 5836 5838 5839 5841 5843 5846 5848 5851 5853 5856 5858 5861 5863 5864 5866 5868 5869 5870 5871 5872 5873
5853 5854 5854 5854 5854 5854 5854 5854 5855 5853 5852 5850 5850 5849 5847 5845 5843 5842 5841 5839 5836 5835 5833 5832 5832 5831 5831 5832 5834 5835 5837 5839 5841 5843 5845 5847 5850 5853 5855 5857 5859 5861 5863 5864 5866 5867 5868 5869 5870
5849 5849 5850 5850 5850 5850 5850 5851 5851 5850 5849 5847 5847 5846 5844 5843 5842 5841 5839 5838 5836 5834 5832 5830 5829 5829 5829 5829 5831 5832 5834 5836 5837 5839 5841 5844 5847 5849 5851 5853 5856 5857 5859 5860 5862 5863 5864 5865 5866
5845 5846 5846 5846 5846 5845 5846 5846 5847 5846 5846 5844 5843 5843 5842 5841 5840 5839 5837 5836 5834 5833 5831 5829 5828 5827 5827 5827 5828 5830 5831 5833 5834 5836 5838 5840 5843 5846 5847 5849 5852 5853 5855 5856 5857 5859 5859 5860 5861
5841 5842 5842 5842 5842 5842 5842 5844 5844 5843 5843 5842 5841 5840 5839 5838 5838 5837 5836 5835 5833 5831 5829 5827 5826 5826 5826 5826 5827 5828 5829 5830 5831 5833 5835 5837 5839 5842 5844 5845 5847 5849 5850 5851 5852 5853 5854 5855 5856
5836 5837 5837 5838 5838 5838 5838 5841 5838 5839 5838 5838 5838 5837 5836 5836 5835 5835 5834 5833 5832 5830 5828 5826 5825 5825 5825 5825 5825 5826 5827 5828 5829 5831 5833 5834 5836 5838 5840 5841 5843 5844 5845 5846 5847 5848 5849 5850 5851